Zurück zum Katalog

CZ-6A DEB

AktivSSO
NORAD 56248·DEBRIS·🇨🇳 China

Gestartet Nov 11, 2022 von Taiyuan Satellite Launch Center

Loading…

Nächste Überflüge (nächste 24 Stunden)

TLE

AktuellSource: Space-Track

Epoche: Sep 14, 2026, 09:22 UTC

1 56248U 22151ABQ 26257.39048340  .00000340  00000-0  23961-3 0  9990
2 56248  98.8776 239.6248 0076000 127.3221 233.4903 14.03114141178647

Verfolge CZ-6A DEB in Echtzeit mit AllMySat

Download on the App Store